Tracking 19219 objects as of 21-Jul-2018
HD Live streaming from Space Station
objects crossing your sky now

FLOCK 3M 3

Track FLOCK 3M 3 now!
10-day predictions
FLOCK 3M 3 is classified as:


NORAD ID: 42996
Int'l Code: 2017-068K
Perigee: 503.5 km
Apogee: 527.4 km
Inclination: 97.4 °
Period: 94.8 minutes
Semi major axis: 6886 km
RCS: Unknown
Launch date: October 31, 2017
Source: United States (US)
Launch site: AIR FORCE WESTERN TEST RANGE (AFWTR)
aabbcc
Your satellite tracking list
Your tracking list is empty




NASA's NSSDC Master Catalog

Two Line Element Set (TLE):
1 42996U 17068K   18202.06132923  .00001564  00000-0  77303-4 0  9991
2 42996  97.3545 313.7748 0017357  36.2036 324.0370 15.19172059 39787
Source of the keplerian elements: AFSPC